Tracking 30415 objects as of 15-May-2025
HD Live streaming from Space Station
objects crossing your sky now

THOR ABLESTAR DEB

Track THOR ABLESTAR DEB now!
10-day predictions


NORAD ID: 643
Int'l Code: 1961-015GU
Perigee: 880.0 km
Apogee: 1,385.4 km
Inclination: 66.4 °
Period: 107.8 minutes
Semi major axis: 7503 km
RCS: 0.0691 m2 (small)
Launch date: June 29, 1961
Source: United States (US)
Launch site: AIR FORCE EASTERN TEST RANGE (AFETR)

Note: This is SATELLITE DEBRIS
Your satellite tracking list
Your tracking list is empty




NASA's NSSDC Master Catalog

Two Line Element Set (TLE):
1   643U 61015GU  25134.75757689  .00001764  00000-0  26060-2 0  9999
2   643  66.3697 240.8286 0336776 262.1660  94.1039 13.35643917 57153
Source of the keplerian elements: AFSPC